Time,TemperatureF,DewpointF,PressureIn,WindDirection,WindDirectionDegrees,WindSpeedMPH,WindSpeedGustMPH,Humidity,HourlyPrecipIn,Conditions,Clouds,dailyrainin,SoftwareType,DateUTC
2013-03-31 00:00:00,56.0,46.7,30.08,ESE,102,0.0,0.0,71,0.00,CLR,,0.02,WeatherDisplay:10.37,2013-03-31 04:00:00,
2013-03-31 00:05:00,55.9,48.8,30.08,ESE,102,0.0,0.0,77,0.00,RA,,0.00,WeatherDisplay:10.37,2013-03-31 04:05:00,
2013-03-31 00:10:00,55.8,49.4,30.09,ESE,102,0.0,0.0,79,0.00,CLR,,0.00,WeatherDisplay:10.37,2013-03-31 04:10:00,
2013-03-31 00:15:00,55.3,49.6,30.08,ESE,102,0.0,0.0,81,0.01,RA,,0.01,WeatherDisplay:10.37,2013-03-31 04:15:00,
2013-03-31 00:20:00,54.9,50.2,30.09,ESE,102,0.0,0.0,84,0.01,RA,,0.01,WeatherDisplay:10.37,2013-03-31 04:20:00,
2013-03-31 00:25:00,54.6,51.1,30.09,ESE,102,0.0,0.0,88,0.01,CLR,,0.01,WeatherDisplay:10.37,2013-03-31 04:25:00,
2013-03-31 00:30:00,54.4,51.5,30.09,ESE,102,0.0,0.0,90,0.00,RA,,0.02,WeatherDisplay:10.37,2013-03-31 04:30:00,
2013-03-31 00:35:00,54.9,54.1,30.09,ESE,102,0.0,0.0,97,0.00,RA,,0.02,WeatherDisplay:10.37,2013-03-31 04:35:00,
2013-03-31 00:40:00,55.5,53.8,30.09,ESE,102,0.0,0.0,94,0.00,,,0.02,WeatherDisplay:10.37,2013-03-31 04:40:00,
2013-03-31 00:45:00,55.3,53.6,30.08,ESE,102,0.0,0.0,94,0.01,RA,,0.03,WeatherDisplay:10.37,2013-03-31 04:45:00,
2013-03-31 00:50:00,54.7,53.3,30.08,ESE,102,0.0,0.0,95,0.01,RA,,0.03,WeatherDisplay:10.37,2013-03-31 04:50:00,
2013-03-31 00:55:00,54.4,53.3,30.08,ESE,102,0.0,0.0,96,0.02,RA,,0.04,WeatherDisplay:10.37,2013-03-31 04:55:00,
2013-03-31 01:00:00,54.1,53.3,30.08,ESE,102,0.0,0.0,97,0.04,RA,,0.04,WeatherDisplay:10.37,2013-03-31 05:00:00,
2013-03-31 01:05:00,54.1,53.5,30.08,ESE,102,0.0,0.0,98,0.04,CLR,,0.05,WeatherDisplay:10.37,2013-03-31 05:05:00,
2013-03-31 01:10:00,54.0,53.2,30.08,ESE,102,0.0,0.0,97,0.05,RA,,0.05,WeatherDisplay:10.37,2013-03-31 05:10:00,
2013-03-31 01:15:00,53.8,53.2,30.08,ESE,102,0.0,0.0,98,0.05,RA,,0.06,WeatherDisplay:10.37,2013-03-31 05:15:00,
2013-03-31 01:20:00,53.6,53.0,30.07,ESE,102,0.0,0.0,98,0.06,RA,,0.07,WeatherDisplay:10.37,2013-03-31 05:20:00,
2013-03-31 01:25:00,53.3,53.0,30.07,ESE,102,0.0,0.0,99,0.07,RA,,0.08,WeatherDisplay:10.37,2013-03-31 05:25:00,
2013-03-31 01:30:00,53.0,53.0,30.07,ESE,102,0.0,0.0,100,0.07,RA,,0.09,WeatherDisplay:10.37,2013-03-31 05:30:00,
2013-03-31 01:35:00,53.0,53.0,30.06,ESE,102,0.0,0.0,100,0.07,RA,,0.09,WeatherDisplay:10.37,2013-03-31 05:35:00,
2013-03-31 01:40:00,53.0,53.0,30.06,ESE,102,0.0,0.0,100,0.08,RA,,0.10,WeatherDisplay:10.37,2013-03-31 05:40:00,
2013-03-31 01:45:00,53.0,53.0,30.06,ESE,102,0.0,0.0,100,0.07,RA,,0.10,WeatherDisplay:10.37,2013-03-31 05:45:00,
2013-03-31 01:50:00,53.1,53.1,30.06,ESE,102,0.0,0.0,100,0.07,,,0.10,WeatherDisplay:10.37,2013-03-31 05:50:00,
2013-03-31 01:55:00,53.1,53.1,30.06,ESE,102,0.0,0.0,100,0.06,CLR,,0.10,WeatherDisplay:10.37,2013-03-31 05:55:00,
2013-03-31 02:00:00,53.3,53.3,30.06,ESE,102,0.0,0.0,100,0.07,RA,,0.11,WeatherDisplay:10.37,2013-03-31 06:00:00,
2013-03-31 02:05:00,53.3,53.3,30.06,ESE,102,0.0,0.0,100,0.08,RA,,0.12,WeatherDisplay:10.37,2013-03-31 06:05:00,
2013-03-31 02:10:00,53.2,53.2,30.05,ESE,102,0.0,0.0,100,0.08,RA,,0.13,WeatherDisplay:10.37,2013-03-31 06:10:00,
2013-03-31 02:15:00,53.1,53.1,30.04,ESE,102,0.0,0.0,100,0.09,RA,,0.15,WeatherDisplay:10.37,2013-03-31 06:15:00,
2013-03-31 02:21:00,53.2,53.2,30.05,ESE,102,0.0,0.0,100,0.09,RA,,0.16,WeatherDisplay:10.37,2013-03-31 06:21:00,
2013-03-31 02:26:00,53.2,53.2,30.03,ESE,102,0.0,0.0,100,0.10,RA,,0.18,WeatherDisplay:10.37,2013-03-31 06:26:00,
2013-03-31 02:31:00,53.0,53.0,30.03,ESE,102,0.0,0.0,100,0.09,RA,,0.19,WeatherDisplay:10.37,2013-03-31 06:31:00,
2013-03-31 02:36:00,52.9,52.9,30.03,ESE,102,0.0,0.0,100,0.10,RA,,0.19,WeatherDisplay:10.37,2013-03-31 06:36:00,
2013-03-31 02:41:00,53.8,53.8,30.03,ESE,102,0.0,0.0,100,0.11,RA,,0.21,WeatherDisplay:10.37,2013-03-31 06:41:00,
2013-03-31 02:46:00,55.2,55.2,30.03,ESE,102,0.0,0.0,100,0.12,RA,,0.22,WeatherDisplay:10.37,2013-03-31 06:46:00,
2013-03-31 02:51:00,55.4,55.4,30.03,ESE,102,0.0,0.0,100,0.12,RA,,0.22,WeatherDisplay:10.37,2013-03-31 06:51:00,
2013-03-31 02:56:00,54.9,54.9,30.03,ESE,102,0.0,0.0,100,0.13,RA,,0.24,WeatherDisplay:10.37,2013-03-31 06:56:00,
2013-03-31 03:01:00,54.1,54.1,30.02,ESE,102,0.0,0.0,100,0.16,RA,,0.27,WeatherDisplay:10.37,2013-03-31 07:01:00,
2013-03-31 03:06:00,53.7,53.7,30.02,ESE,102,0.0,0.0,100,0.17,RA,,0.29,WeatherDisplay:10.37,2013-03-31 07:06:00,
2013-03-31 03:11:00,53.6,53.6,30.02,ESE,102,0.0,0.0,100,0.19,RA,,0.32,WeatherDisplay:10.37,2013-03-31 07:11:00,
2013-03-31 03:17:00,53.5,53.5,30.01,ESE,102,0.0,0.0,100,0.17,RA,,0.32,WeatherDisplay:10.37,2013-03-31 07:17:00,
2013-03-31 03:22:00,53.2,53.2,30.00,ESE,102,0.0,0.0,100,0.16,RA,,0.33,WeatherDisplay:10.37,2013-03-31 07:22:00,
2013-03-31 03:27:00,53.1,53.1,30.00,ESE,102,0.0,0.0,100,0.15,RA,,0.33,WeatherDisplay:10.37,2013-03-31 07:27:00,
2013-03-31 03:32:00,53.1,53.1,30.00,ESE,102,0.0,0.0,100,0.14,CLR,,0.33,WeatherDisplay:10.37,2013-03-31 07:32:00,
2013-03-31 03:37:00,53.1,53.1,30.00,ESE,102,0.0,0.0,100,0.15,RA,,0.34,WeatherDisplay:10.37,2013-03-31 07:37:00,
2013-03-31 03:42:00,53.6,53.6,30.00,ESE,102,0.0,0.0,100,0.13,RA,,0.34,WeatherDisplay:10.37,2013-03-31 07:42:00,
2013-03-31 03:47:00,53.8,53.8,30.00,ESE,102,0.0,0.0,100,0.12,,,0.34,WeatherDisplay:10.37,2013-03-31 07:47:00,
2013-03-31 03:52:00,54.0,54.0,30.00,ESE,102,0.0,0.0,100,0.13,RA,,0.35,WeatherDisplay:10.37,2013-03-31 07:52:00,
2013-03-31 03:57:00,53.7,53.7,29.99,ESE,102,0.0,0.0,100,0.10,,,0.35,WeatherDisplay:10.37,2013-03-31 07:57:00,
2013-03-31 04:02:00,53.3,53.3,29.99,ESE,102,0.0,0.0,100,0.09,RA,,0.37,WeatherDisplay:10.37,2013-03-31 08:02:00,
2013-03-31 04:08:00,53.2,53.2,29.99,ESE,102,0.0,0.0,100,0.09,RA,,0.38,WeatherDisplay:10.37,2013-03-31 08:08:00,
2013-03-31 04:13:00,53.0,53.0,30.00,ESE,102,0.0,0.0,100,0.07,RA,,0.39,WeatherDisplay:10.37,2013-03-31 08:13:00,
2013-03-31 04:18:00,53.1,53.1,29.99,WSW,256,0.0,0.0,100,0.08,RA,,0.40,WeatherDisplay:10.37,2013-03-31 08:18:00,
2013-03-31 04:23:00,52.9,52.9,29.99,WSW,256,0.0,0.0,100,0.08,RA,,0.41,WeatherDisplay:10.37,2013-03-31 08:23:00,
2013-03-31 04:28:00,52.9,52.9,29.99,WSW,256,0.0,0.0,100,0.10,RA,,0.43,WeatherDisplay:10.37,2013-03-31 08:28:00,
2013-03-31 04:33:00,52.9,52.9,29.99,WSW,256,0.0,0.0,100,0.10,RA,,0.43,WeatherDisplay:10.37,2013-03-31 08:33:00,
2013-03-31 04:38:00,53.0,53.0,29.98,WSW,256,0.0,0.0,100,0.10,RA,,0.45,WeatherDisplay:10.37,2013-03-31 08:38:00,
2013-03-31 04:43:00,53.2,53.2,29.99,WSW,256,0.0,0.0,100,0.12,RA,,0.47,WeatherDisplay:10.37,2013-03-31 08:43:00,
2013-03-31 04:48:00,54.2,54.2,29.99,WSW,256,0.0,0.0,100,0.13,RA,,0.49,WeatherDisplay:10.37,2013-03-31 08:48:00,
2013-03-31 04:53:00,54.7,54.7,29.99,WSW,256,0.0,0.0,100,0.15,RA,,0.50,WeatherDisplay:10.37,2013-03-31 08:53:00,
2013-03-31 04:58:00,54.5,54.5,29.99,WSW,256,0.0,0.0,100,0.16,RA,,0.51,WeatherDisplay:10.37,2013-03-31 08:58:00,
2013-03-31 05:03:00,54.3,54.3,29.98,WSW,256,0.0,0.0,100,0.15,RA,,0.51,WeatherDisplay:10.37,2013-03-31 09:03:00,
2013-03-31 05:08:00,54.0,54.0,29.98,WSW,256,0.0,0.0,100,0.14,RA,,0.52,WeatherDisplay:10.37,2013-03-31 09:08:00,
2013-03-31 05:13:00,53.7,53.7,29.98,WSW,256,0.0,0.0,100,0.14,RA,,0.53,WeatherDisplay:10.37,2013-03-31 09:13:00,
2013-03-31 05:18:00,53.5,53.5,29.98,WSW,256,0.0,0.0,100,0.13,RA,,0.54,WeatherDisplay:10.37,2013-03-31 09:18:00,
2013-03-31 05:23:00,53.5,53.5,29.98,WSW,256,0.0,0.0,100,0.14,RA,,0.56,WeatherDisplay:10.37,2013-03-31 09:23:00,
2013-03-31 05:28:00,53.2,53.2,29.98,WSW,256,0.0,0.0,100,0.14,RA,,0.58,WeatherDisplay:10.37,2013-03-31 09:28:00,
2013-03-31 05:33:00,53.2,53.2,29.98,WSW,256,0.0,0.0,100,0.16,RA,,0.59,WeatherDisplay:10.37,2013-03-31 09:33:00,
2013-03-31 05:38:00,53.3,53.3,29.98,WSW,256,0.0,0.0,100,0.15,RA,,0.60,WeatherDisplay:10.37,2013-03-31 09:38:00,
2013-03-31 05:43:00,53.4,53.4,29.98,WSW,256,0.0,0.0,100,0.14,RA,,0.60,WeatherDisplay:10.37,2013-03-31 09:43:00,
2013-03-31 05:48:00,53.7,53.7,29.98,WSW,256,0.0,0.0,100,0.12,RA,,0.60,WeatherDisplay:10.37,2013-03-31 09:48:00,
2013-03-31 05:53:00,54.7,54.7,29.98,WSW,256,0.0,0.0,100,0.11,RA,,0.61,WeatherDisplay:10.37,2013-03-31 09:53:00,
2013-03-31 05:58:00,55.1,55.1,29.98,WSW,256,0.0,0.0,100,0.10,RA,,0.61,WeatherDisplay:10.37,2013-03-31 09:58:00,
2013-03-31 06:03:00,54.6,54.6,29.97,WSW,256,0.0,0.0,100,0.10,,,0.61,WeatherDisplay:10.37,2013-03-31 10:03:00,
2013-03-31 06:08:00,54.2,54.2,29.97,WSW,256,0.0,0.0,100,0.09,CLR,,0.61,WeatherDisplay:10.37,2013-03-31 10:08:00,
2013-03-31 06:13:00,53.7,53.7,29.97,WSW,256,0.0,0.0,100,0.08,CLR,,0.61,WeatherDisplay:10.37,2013-03-31 10:13:00,
2013-03-31 06:18:00,53.4,53.4,29.97,WSW,256,0.0,0.0,100,0.07,CLR,,0.61,WeatherDisplay:10.37,2013-03-31 10:18:00,
2013-03-31 06:23:00,53.2,53.2,29.97,WSW,256,0.0,0.0,100,0.05,CLR,,0.61,WeatherDisplay:10.37,2013-03-31 10:23:00,
2013-03-31 06:28:00,53.1,53.1,29.97,WSW,256,0.0,0.0,100,0.04,RA,,0.62,WeatherDisplay:10.37,2013-03-31 10:28:00,
2013-03-31 06:33:00,53.0,53.0,29.96,WSW,256,0.0,0.0,100,0.03,RA,,0.62,WeatherDisplay:10.37,2013-03-31 10:33:00,
2013-03-31 06:38:00,53.0,53.0,29.97,WSW,256,0.0,0.0,100,0.02,CLR,,0.62,WeatherDisplay:10.37,2013-03-31 10:38:00,
2013-03-31 06:43:00,53.0,53.0,29.96,WSW,256,0.0,0.0,100,0.02,CLR,,0.62,WeatherDisplay:10.37,2013-03-31 10:43:00,
2013-03-31 06:48:00,52.8,52.8,29.96,WSW,256,0.0,0.0,100,0.02,CLR,,0.62,WeatherDisplay:10.37,2013-03-31 10:48:00,
2013-03-31 06:53:00,53.2,53.2,29.96,WSW,256,0.0,0.0,100,0.01,CLR,,0.62,WeatherDisplay:10.37,2013-03-31 10:53:00,
2013-03-31 06:58:00,54.2,54.2,29.96,WSW,256,0.0,0.0,100,0.01,CLR,,0.62,WeatherDisplay:10.37,2013-03-31 10:58:00,
2013-03-31 07:03:00,54.4,54.4,29.96,WSW,256,0.0,0.0,100,0.01,CLR,,0.62,WeatherDisplay:10.37,2013-03-31 11:03:00,
2013-03-31 07:08:00,54.3,54.3,29.96,WSW,256,0.0,0.0,100,0.01,CLR,,0.62,WeatherDisplay:10.37,2013-03-31 11:08:00,
2013-03-31 07:13:00,54.0,54.0,29.95,WSW,256,0.0,0.0,100,0.01,CLR,,0.62,WeatherDisplay:10.37,2013-03-31 11:13:00,
2013-03-31 07:18:00,53.8,53.8,29.95,WSW,256,0.0,0.0,100,0.01,CLR,,0.62,WeatherDisplay:10.37,2013-03-31 11:18:00,
2013-03-31 07:23:00,53.8,53.8,29.95,WSW,256,0.0,0.0,100,0.01,CLR,,0.62,WeatherDisplay:10.37,2013-03-31 11:23:00,
2013-03-31 07:28:00,53.6,53.6,29.95,WSW,256,0.0,0.0,100,0.00,CLR,,0.62,WeatherDisplay:10.37,2013-03-31 11:28:00,
2013-03-31 07:33:00,53.5,53.5,29.95,WSW,256,0.0,0.0,100,0.00,CLR,,0.62,WeatherDisplay:10.37,2013-03-31 11:33:00,
2013-03-31 07:38:00,53.5,53.5,29.96,WSW,256,0.0,0.0,100,0.00,CLR,,0.62,WeatherDisplay:10.37,2013-03-31 11:38:00,
2013-03-31 07:43:00,53.7,53.7,29.96,WSW,256,0.0,0.0,100,0.00,CLR,,0.62,WeatherDisplay:10.37,2013-03-31 11:43:00,
2013-03-31 07:48:00,55.2,55.2,29.95,WSW,256,0.0,0.0,100,0.00,CLR,,0.62,WeatherDisplay:10.37,2013-03-31 11:48:00,
2013-03-31 07:53:00,54.9,54.9,29.95,WSW,256,0.0,0.0,100,0.00,CLR,,0.62,WeatherDisplay:10.37,2013-03-31 11:53:00,
2013-03-31 07:58:00,54.8,54.8,29.95,WSW,256,0.0,0.0,100,0.00,CLR,,0.62,WeatherDisplay:10.37,2013-03-31 11:58:00,
2013-03-31 08:03:00,54.6,54.6,29.95,WSW,256,0.0,0.0,100,0.00,CLR,,0.62,WeatherDisplay:10.37,2013-03-31 12:03:00,
2013-03-31 08:08:00,54.4,54.4,29.95,WSW,256,0.0,0.0,100,0.00,CLR,,0.62,WeatherDisplay:10.37,2013-03-31 12:08:00,
2013-03-31 08:13:00,54.3,54.3,29.95,WSW,256,0.0,0.0,100,0.00,CLR,,0.62,WeatherDisplay:10.37,2013-03-31 12:13:00,
2013-03-31 08:18:00,54.3,54.3,29.95,WSW,256,0.0,0.0,100,0.00,CLR,,0.62,WeatherDisplay:10.37,2013-03-31 12:18:00,
2013-03-31 08:23:00,54.2,54.2,29.94,WSW,256,0.0,0.0,100,0.00,CLR,,0.62,WeatherDisplay:10.37,2013-03-31 12:23:00,
2013-03-31 08:28:00,54.2,54.2,29.93,WSW,256,0.0,0.0,100,0.00,CLR,,0.62,WeatherDisplay:10.37,2013-03-31 12:28:00,
2013-03-31 08:33:00,54.3,54.3,29.94,WSW,256,0.0,0.0,100,0.00,CLR,,0.62,WeatherDisplay:10.37,2013-03-31 12:33:00,
2013-03-31 08:38:00,54.5,54.5,29.93,WSW,256,0.0,0.0,100,0.00,CLR,,0.62,WeatherDisplay:10.37,2013-03-31 12:38:00,
2013-03-31 08:43:00,55.5,55.5,29.93,WSW,256,0.0,0.0,100,0.00,CLR,,0.62,WeatherDisplay:10.37,2013-03-31 12:43:00,
2013-03-31 08:48:00,55.9,55.9,29.93,WSW,256,0.0,0.0,100,0.00,CLR,,0.62,WeatherDisplay:10.37,2013-03-31 12:48:00,
2013-03-31 08:53:00,55.8,55.8,29.93,WSW,256,0.0,0.0,100,0.00,CLR,,0.62,WeatherDisplay:10.37,2013-03-31 12:53:00,
2013-03-31 08:58:00,55.6,55.6,29.93,WSW,256,0.0,0.0,100,0.00,CLR,,0.62,WeatherDisplay:10.37,2013-03-31 12:58:00,
2013-03-31 09:03:00,55.4,55.4,29.93,South,169,2.3,2.3,100,0.00,CLR,,0.62,WeatherDisplay:10.37,2013-03-31 13:03:00,
2013-03-31 09:08:00,55.4,55.4,29.93,East,100,0.0,0.0,100,0.00,CLR,,0.62,WeatherDisplay:10.37,2013-03-31 13:08:00,
2013-03-31 09:14:00,55.4,55.4,29.93,South,179,0.0,0.0,100,0.00,CLR,,0.62,WeatherDisplay:10.37,2013-03-31 13:14:00,
2013-03-31 09:19:00,55.8,55.8,29.93,SSE,148,1.2,1.2,100,0.00,CLR,,0.62,WeatherDisplay:10.37,2013-03-31 13:19:00,
2013-03-31 09:24:00,56.8,56.8,29.93,SSE,148,0.0,0.0,100,0.00,CLR,,0.62,WeatherDisplay:10.37,2013-03-31 13:24:00,
2013-03-31 09:29:00,57.7,57.7,29.93,SSE,148,0.0,0.0,100,0.00,CLR,,0.62,WeatherDisplay:10.37,2013-03-31 13:29:00,
2013-03-31 09:34:00,58.3,58.3,29.93,SW,224,2.4,2.4,100,0.00,CLR,,0.62,WeatherDisplay:10.37,2013-03-31 13:34:00,
2013-03-31 09:39:00,58.4,58.4,29.93,SSW,206,1.2,0.0,100,0.00,CLR,,0.62,WeatherDisplay:10.37,2013-03-31 13:39:00,
2013-03-31 09:44:00,58.2,58.2,29.94,SSW,203,5.8,5.8,100,0.00,CLR,,0.62,WeatherDisplay:10.37,2013-03-31 13:44:00,
2013-03-31 09:49:00,58.1,58.1,29.94,SW,215,5.8,5.8,100,0.00,CLR,,0.62,WeatherDisplay:10.37,2013-03-31 13:49:00,
2013-03-31 09:54:00,57.8,57.8,29.94,SE,143,1.7,2.3,100,0.00,CLR,,0.62,WeatherDisplay:10.37,2013-03-31 13:54:00,
2013-03-31 09:59:00,57.8,57.8,29.93,South,189,0.4,1.0,100,0.00,CLR,,0.62,WeatherDisplay:10.37,2013-03-31 13:59:00,
2013-03-31 10:04:00,57.8,57.8,29.93,SSW,210,4.6,4.6,100,0.00,CLR,,0.62,WeatherDisplay:10.37,2013-03-31 14:04:00,
2013-03-31 10:09:00,58.1,58.1,29.93,ESE,113,6.9,6.9,100,0.00,CLR,,0.62,WeatherDisplay:10.37,2013-03-31 14:09:00,
2013-03-31 10:14:00,58.6,58.6,29.93,SSW,202,0.0,0.0,100,0.00,CLR,,0.62,WeatherDisplay:10.37,2013-03-31 14:14:00,
2013-03-31 10:19:00,59.5,59.5,29.93,SSW,202,0.0,0.0,100,0.00,CLR,,0.62,WeatherDisplay:10.37,2013-03-31 14:19:00,
2013-03-31 10:24:00,59.9,59.9,29.93,WSW,251,4.6,0.0,100,0.00,CLR,,0.62,WeatherDisplay:10.37,2013-03-31 14:24:00,
2013-03-31 10:29:00,60.2,60.2,29.93,SW,230,0.0,0.0,100,0.00,CLR,,0.62,WeatherDisplay:10.37,2013-03-31 14:29:00,
2013-03-31 11:21:00,63.2,60.8,29.91,SSW,192,0.0,0.0,92,0.00,CLR,,0.62,WeatherDisplay:10.37,2013-03-31 15:21:00,
2013-03-31 11:26:00,63.9,61.5,29.91,WSW,253,4.6,4.6,92,0.00,RA,,0.62,WeatherDisplay:10.37,2013-03-31 15:26:00,
2013-03-31 11:31:00,64.3,60.7,29.91,West,267,6.9,6.9,88,0.00,RA,,0.62,WeatherDisplay:10.37,2013-03-31 15:31:00,
2013-03-31 11:36:00,64.3,59.7,29.91,SW,230,8.1,8.1,85,0.00,CLR,,0.62,WeatherDisplay:10.37,2013-03-31 15:36:00,
2013-03-31 11:41:00,64.3,59.4,29.91,SSW,210,4.9,4.9,84,0.00,CLR,,0.62,WeatherDisplay:10.37,2013-03-31 15:41:00,
2013-03-31 11:46:00,64.7,59.8,29.90,SSW,199,5.8,5.8,84,0.00,CLR,,0.62,WeatherDisplay:10.37,2013-03-31 15:46:00,
2013-03-31 11:51:00,65.1,59.5,29.90,SSW,212,7.0,7.0,82,0.00,CLR,,0.62,WeatherDisplay:10.37,2013-03-31 15:51:00,
2013-03-31 11:56:00,65.8,59.1,29.90,SSW,206,6.2,6.2,79,0.00,CLR,,0.62,WeatherDisplay:10.37,2013-03-31 15:56:00,
2013-03-31 12:02:00,66.4,58.6,29.90,SSE,168,5.8,5.8,76,0.00,CLR,,0.62,WeatherDisplay:10.37,2013-03-31 16:02:00,
2013-03-31 12:07:00,67.2,58.2,29.90,SW,227,9.2,9.2,73,0.00,CLR,,0.62,WeatherDisplay:10.37,2013-03-31 16:07:00,
2013-03-31 12:12:00,67.8,57.7,29.90,South,171,9.2,9.2,70,0.00,CLR,,0.62,WeatherDisplay:10.37,2013-03-31 16:12:00,
2013-03-31 12:17:00,68.4,58.2,29.89,SW,230,5.5,5.5,70,0.00,CLR,,0.62,WeatherDisplay:10.37,2013-03-31 16:17:00,
2013-03-31 12:22:00,68.8,57.4,29.89,South,178,8.1,8.1,67,0.00,CLR,,0.62,WeatherDisplay:10.37,2013-03-31 16:22:00,
2013-03-31 12:27:00,69.0,57.2,29.89,WSW,239,5.8,5.8,66,0.00,CLR,,0.62,WeatherDisplay:10.37,2013-03-31 16:27:00,
2013-03-31 12:32:00,69.4,56.7,29.88,SE,134,4.6,4.6,64,0.00,CLR,,0.62,WeatherDisplay:10.37,2013-03-31 16:32:00,
2013-03-31 12:37:00,69.8,56.6,29.89,ESE,121,2.9,2.9,63,0.00,CLR,,0.62,WeatherDisplay:10.37,2013-03-31 16:37:00,
2013-03-31 12:43:00,70.5,56.4,29.88,West,270,8.1,8.1,61,0.00,CLR,,0.62,WeatherDisplay:10.37,2013-03-31 16:43:00,
2013-03-31 12:48:00,71.3,56.7,29.88,SE,130,5.8,5.8,60,0.00,CLR,,0.62,WeatherDisplay:10.37,2013-03-31 16:48:00,
2013-03-31 12:53:00,71.9,56.3,29.88,SSW,202,8.5,8.5,58,0.00,CLR,,0.62,WeatherDisplay:10.37,2013-03-31 16:53:00,
2013-03-31 12:58:00,72.2,56.1,29.89,South,172,8.1,8.1,57,0.00,CLR,,0.62,WeatherDisplay:10.37,2013-03-31 16:58:00,
2013-03-31 13:03:00,72.4,56.3,29.89,SW,234,10.4,10.4,57,0.00,CLR,,0.62,WeatherDisplay:10.37,2013-03-31 17:03:00,
2013-03-31 13:08:00,72.6,56.5,29.89,SSE,151,8.1,8.1,57,0.00,CLR,,0.62,WeatherDisplay:10.37,2013-03-31 17:08:00,
2013-03-31 13:13:00,72.8,56.2,29.89,SW,215,9.2,9.2,56,0.00,CLR,,0.62,WeatherDisplay:10.37,2013-03-31 17:13:00,
2013-03-31 13:18:00,72.7,55.6,29.88,SSW,212,9.2,9.2,55,0.00,CLR,,0.62,WeatherDisplay:10.37,2013-03-31 17:18:00,
2013-03-31 13:23:00,72.8,55.2,29.88,SSE,154,4.6,4.6,54,0.00,CLR,,0.62,WeatherDisplay:10.37,2013-03-31 17:23:00,
2013-03-31 13:28:00,73.1,56.0,29.88,South,176,8.1,8.1,55,0.00,CLR,,0.62,WeatherDisplay:10.37,2013-03-31 17:28:00,
2013-03-31 13:33:00,73.1,55.5,29.88,South,171,10.4,10.4,54,0.00,CLR,,0.62,WeatherDisplay:10.37,2013-03-31 17:33:00,
2013-03-31 13:38:00,73.3,55.6,29.88,South,191,6.3,6.3,54,0.00,CLR,,0.62,WeatherDisplay:10.37,2013-03-31 17:38:00,
2013-03-31 13:43:00,73.6,55.4,29.88,SW,217,10.4,10.4,53,0.00,CLR,,0.62,WeatherDisplay:10.37,2013-03-31 17:43:00,
2013-03-31 13:48:00,73.9,55.7,29.88,SSW,210,11.3,11.3,53,0.00,CLR,,0.62,WeatherDisplay:10.37,2013-03-31 17:48:00,
2013-03-31 13:53:00,74.1,55.3,29.87,SSW,196,4.6,4.6,52,0.00,CLR,,0.62,WeatherDisplay:10.37,2013-03-31 17:53:00,
2013-03-31 13:58:00,74.6,55.3,29.87,SSW,200,8.1,8.1,51,0.00,CLR,,0.62,WeatherDisplay:10.37,2013-03-31 17:58:00,
2013-03-31 14:03:00,74.5,55.2,29.87,WSW,258,8.1,8.1,51,0.00,CLR,,0.62,WeatherDisplay:10.37,2013-03-31 18:03:00,
2013-03-31 14:08:00,74.2,55.4,29.87,SE,131,5.8,5.8,52,0.00,CLR,,0.62,WeatherDisplay:10.37,2013-03-31 18:08:00,
2013-03-31 14:13:00,73.9,55.2,29.87,South,182,15.0,15.0,52,0.00,CLR,,0.62,WeatherDisplay:10.37,2013-03-31 18:13:00,
2013-03-31 14:18:00,73.9,55.2,29.87,South,176,5.8,5.8,52,0.00,CLR,,0.62,WeatherDisplay:10.37,2013-03-31 18:18:00,
2013-03-31 14:23:00,73.6,54.9,29.87,SW,222,6.9,6.9,52,0.00,CLR,,0.62,WeatherDisplay:10.37,2013-03-31 18:23:00,
2013-03-31 14:28:00,73.2,55.0,29.87,East,99,10.4,10.4,53,0.00,CLR,,0.62,WeatherDisplay:10.37,2013-03-31 18:28:00,
2013-03-31 14:33:00,73.0,54.3,29.87,South,181,9.2,9.2,52,0.00,CLR,,0.62,WeatherDisplay:10.37,2013-03-31 18:33:00,
2013-03-31 14:38:00,73.1,54.9,29.87,South,179,12.7,12.7,53,0.00,CLR,,0.62,WeatherDisplay:10.37,2013-03-31 18:38:00,
2013-03-31 14:43:00,73.7,54.4,29.86,SSE,158,11.5,11.5,51,0.00,CLR,,0.62,WeatherDisplay:10.37,2013-03-31 18:43:00,
2013-03-31 14:48:00,74.0,54.7,29.87,SSE,147,6.9,6.9,51,0.00,CLR,,0.62,WeatherDisplay:10.37,2013-03-31 18:48:00,
2013-03-31 14:53:00,74.4,54.5,29.86,SSE,150,8.1,8.1,50,0.00,CLR,,0.62,WeatherDisplay:10.37,2013-03-31 18:53:00,
2013-03-31 14:58:00,74.2,54.9,29.87,WSW,257,8.4,8.4,51,0.00,CLR,,0.62,WeatherDisplay:10.37,2013-03-31 18:58:00,
2013-03-31 15:03:00,74.3,55.0,29.87,SSW,195,10.4,10.4,51,0.00,CLR,,0.62,WeatherDisplay:10.37,2013-03-31 19:03:00,
2013-03-31 15:08:00,74.3,54.5,29.86,ESE,110,4.6,4.6,50,0.00,CLR,,0.62,WeatherDisplay:10.37,2013-03-31 19:08:00,
2013-03-31 15:13:00,74.2,54.4,29.87,WSW,248,11.5,11.5,50,0.00,CLR,,0.62,WeatherDisplay:10.37,2013-03-31 19:13:00,
2013-03-31 15:18:00,74.1,54.3,29.87,SE,143,11.5,11.5,50,0.00,CLR,,0.62,WeatherDisplay:10.37,2013-03-31 19:18:00,
2013-03-31 15:23:00,73.8,54.0,29.87,South,189,9.2,9.2,50,0.00,CLR,,0.62,WeatherDisplay:10.37,2013-03-31 19:23:00,
2013-03-31 15:29:00,73.6,53.8,29.86,SSE,160,8.1,8.1,50,0.00,CLR,,0.62,WeatherDisplay:10.37,2013-03-31 19:29:00,
2013-03-31 15:34:00,73.9,54.1,29.85,SSE,155,8.1,8.1,50,0.00,CLR,,0.62,WeatherDisplay:10.37,2013-03-31 19:34:00,
2013-03-31 15:39:00,74.4,54.0,29.86,SW,222,8.1,8.1,49,0.00,CLR,,0.62,WeatherDisplay:10.37,2013-03-31 19:39:00,
2013-03-31 15:44:00,74.7,53.7,29.85,South,169,6.9,6.9,48,0.00,CLR,,0.62,WeatherDisplay:10.37,2013-03-31 19:44:00,
2013-03-31 15:49:00,74.5,53.5,29.86,SW,230,6.9,6.9,48,0.00,CLR,,0.62,WeatherDisplay:10.37,2013-03-31 19:49:00,
2013-03-31 15:54:00,74.7,53.7,29.85,SW,220,8.1,8.1,48,0.00,CLR,,0.62,WeatherDisplay:10.37,2013-03-31 19:54:00,
2013-03-31 15:59:00,74.7,53.7,29.85,SSW,195,9.2,9.2,48,0.00,CLR,,0.62,WeatherDisplay:10.37,2013-03-31 19:59:00,
2013-03-31 16:04:00,74.2,53.8,29.85,South,179,3.5,3.5,49,0.00,CLR,,0.62,WeatherDisplay:10.37,2013-03-31 20:04:00,
2013-03-31 16:09:00,73.3,53.5,29.85,ENE,66,3.5,3.5,50,0.00,CLR,,0.62,WeatherDisplay:10.37,2013-03-31 20:09:00,
2013-03-31 16:14:00,72.6,53.4,29.85,ESE,117,9.2,9.2,51,0.00,CLR,,0.62,WeatherDisplay:10.37,2013-03-31 20:14:00,
2013-03-31 16:19:00,72.0,52.9,29.85,South,185,8.1,8.1,51,0.00,CLR,,0.62,WeatherDisplay:10.37,2013-03-31 20:19:00,
2013-03-31 16:24:00,71.6,53.0,29.85,ENE,59,11.5,11.5,52,0.00,CLR,,0.62,WeatherDisplay:10.37,2013-03-31 20:24:00,
2013-03-31 16:29:00,71.4,52.3,29.85,SSE,160,5.8,5.8,51,0.00,CLR,,0.62,WeatherDisplay:10.37,2013-03-31 20:29:00,
2013-03-31 16:34:00,71.0,52.5,29.85,SE,138,8.1,8.1,52,0.00,CLR,,0.62,WeatherDisplay:10.37,2013-03-31 20:34:00,
2013-03-31 16:39:00,70.7,52.2,29.85,SSW,198,12.7,12.7,52,0.00,CLR,,0.62,WeatherDisplay:10.37,2013-03-31 20:39:00,
2013-03-31 16:44:00,70.4,52.4,29.86,South,182,9.2,9.2,53,0.00,CLR,,0.62,WeatherDisplay:10.37,2013-03-31 20:44:00,
2013-03-31 16:49:00,70.2,53.3,29.85,SSE,165,8.1,8.1,55,0.00,CLR,,0.62,WeatherDisplay:10.37,2013-03-31 20:49:00,
2013-03-31 16:54:00,69.8,53.9,29.86,SW,216,8.1,8.1,57,0.00,CLR,,0.62,WeatherDisplay:10.37,2013-03-31 20:54:00,
2013-03-31 16:59:00,69.4,54.0,29.85,SSE,158,5.8,5.8,58,0.00,CLR,,0.62,WeatherDisplay:10.37,2013-03-31 20:59:00,
2013-03-31 17:04:00,69.4,54.4,29.85,SSW,210,2.3,2.3,59,0.00,CLR,,0.62,WeatherDisplay:10.37,2013-03-31 21:04:00,
2013-03-31 17:09:00,68.9,54.0,29.85,South,175,4.6,4.6,59,0.00,CLR,,0.62,WeatherDisplay:10.37,2013-03-31 21:09:00,
2013-03-31 17:14:00,68.4,54.4,29.85,ENE,61,0.0,0.0,61,0.00,CLR,,0.62,WeatherDisplay:10.37,2013-03-31 21:14:00,
2013-03-31 17:19:00,68.2,55.1,29.85,WSW,244,0.0,0.0,63,0.00,CLR,,0.62,WeatherDisplay:10.37,2013-03-31 21:19:00,
2013-03-31 17:24:00,67.9,54.8,29.85,SSW,208,8.1,8.1,63,0.00,CLR,,0.62,WeatherDisplay:10.37,2013-03-31 21:24:00,
2013-03-31 17:29:00,67.9,54.8,29.85,SW,232,10.4,10.4,63,0.00,CLR,,0.62,WeatherDisplay:10.37,2013-03-31 21:29:00,
2013-03-31 17:34:00,68.2,56.4,29.85,South,189,0.0,0.0,66,0.00,CLR,,0.62,WeatherDisplay:10.37,2013-03-31 21:34:00,
2013-03-31 17:39:00,68.4,55.3,29.85,West,274,3.5,3.5,63,0.00,CLR,,0.62,WeatherDisplay:10.37,2013-03-31 21:39:00,
2013-03-31 17:44:00,68.3,55.6,29.85,SSW,203,1.2,1.2,64,0.00,CLR,,0.62,WeatherDisplay:10.37,2013-03-31 21:44:00,
2013-03-31 17:49:00,68.2,55.1,29.85,SW,230,8.1,8.1,63,0.00,CLR,,0.62,WeatherDisplay:10.37,2013-03-31 21:49:00,
2013-03-31 17:54:00,68.0,54.9,29.85,SE,140,0.0,0.0,63,0.00,CLR,,0.62,WeatherDisplay:10.37,2013-03-31 21:54:00,
2013-03-31 17:59:00,67.9,54.8,29.85,South,174,4.6,4.6,63,0.00,CLR,,0.62,WeatherDisplay:10.37,2013-03-31 21:59:00,
2013-03-31 18:04:00,67.9,54.8,29.85,WSW,239,6.9,6.9,63,0.00,CLR,,0.62,WeatherDisplay:10.37,2013-03-31 22:04:00,
2013-03-31 18:09:00,67.9,55.7,29.85,SW,222,4.5,4.5,65,0.00,CLR,,0.62,WeatherDisplay:10.37,2013-03-31 22:09:00,
2013-03-31 18:14:00,68.2,56.4,29.85,SSE,152,5.8,5.8,66,0.00,CLR,,0.62,WeatherDisplay:10.37,2013-03-31 22:14:00,
2013-03-31 18:19:00,68.5,56.3,29.86,SSE,160,4.6,4.6,65,0.00,CLR,,0.62,WeatherDisplay:10.37,2013-03-31 22:19:00,
2013-03-31 18:24:00,68.4,54.9,29.85,SW,220,8.1,8.1,62,0.00,CLR,,0.62,WeatherDisplay:10.37,2013-03-31 22:24:00,
2013-03-31 18:29:00,68.1,54.6,29.85,SSW,199,9.2,9.2,62,0.00,CLR,,0.62,WeatherDisplay:10.37,2013-03-31 22:29:00,
2013-03-31 18:35:00,68.0,54.5,29.85,SSE,167,5.8,5.8,62,0.00,CLR,,0.62,WeatherDisplay:10.37,2013-03-31 22:35:00,
2013-03-31 18:40:00,67.7,54.2,29.85,South,188,11.5,11.5,62,0.00,CLR,,0.62,WeatherDisplay:10.37,2013-03-31 22:40:00,
2013-03-31 18:45:00,67.4,53.9,29.86,SSW,210,3.8,3.8,62,0.00,CLR,,0.62,WeatherDisplay:10.37,2013-03-31 22:45:00,
2013-03-31 18:50:00,67.3,54.3,29.86,SW,230,7.8,7.8,63,0.00,CLR,,0.62,WeatherDisplay:10.37,2013-03-31 22:50:00,
2013-03-31 18:55:00,67.0,54.0,29.85,South,188,10.4,10.4,63,0.00,CLR,,0.62,WeatherDisplay:10.37,2013-03-31 22:55:00,
2013-03-31 19:00:00,66.9,53.9,29.85,SW,230,8.1,8.1,63,0.00,CLR,,0.62,WeatherDisplay:10.37,2013-03-31 23:00:00,
2013-03-31 19:05:00,66.9,54.7,29.85,WSW,244,6.9,6.9,65,0.00,CLR,,0.62,WeatherDisplay:10.37,2013-03-31 23:05:00,
2013-03-31 19:10:00,67.0,55.3,29.85,SW,215,5.8,5.8,66,0.00,CLR,,0.62,WeatherDisplay:10.37,2013-03-31 23:10:00,
2013-03-31 19:15:00,67.0,54.4,29.85,WSW,258,4.6,4.6,64,0.00,CLR,,0.62,WeatherDisplay:10.37,2013-03-31 23:15:00,
2013-03-31 19:20:00,66.9,54.3,29.85,SSE,147,2.3,2.3,64,0.00,CLR,,0.62,WeatherDisplay:10.37,2013-03-31 23:20:00,
2013-03-31 19:25:00,66.4,54.3,29.85,SW,227,7.0,7.0,65,0.00,CLR,,0.62,WeatherDisplay:10.37,2013-03-31 23:25:00,
2013-03-31 19:30:00,66.2,54.5,29.85,SSW,203,5.8,5.8,66,0.00,CLR,,0.62,WeatherDisplay:10.37,2013-03-31 23:30:00,
2013-03-31 19:35:00,65.9,54.6,29.85,South,171,4.6,4.6,67,0.00,CLR,,0.62,WeatherDisplay:10.37,2013-03-31 23:35:00,
2013-03-31 19:40:00,65.7,54.4,29.85,WSW,246,5.8,5.8,67,0.00,CLR,,0.62,WeatherDisplay:10.37,2013-03-31 23:40:00,
2013-03-31 19:45:00,65.5,54.7,29.85,West,263,2.3,2.3,68,0.00,CLR,,0.62,WeatherDisplay:10.37,2013-03-31 23:45:00,
2013-03-31 19:50:00,65.3,54.5,29.86,SSE,160,4.6,4.6,68,0.00,CLR,,0.62,WeatherDisplay:10.37,2013-03-31 23:50:00,
2013-03-31 19:55:00,65.5,57.4,29.85,SSW,206,3.5,3.5,75,0.00,CLR,,0.62,WeatherDisplay:10.37,2013-03-31 23:55:00,
2013-03-31 20:00:00,65.8,57.7,29.85,SSE,154,4.6,4.6,75,0.00,CLR,,0.62,WeatherDisplay:10.37,2013-04-01 00:00:00,
2013-03-31 20:05:00,65.7,56.0,29.85,SW,215,0.0,0.0,71,0.00,CLR,,0.62,WeatherDisplay:10.37,2013-04-01 00:05:00,
2013-03-31 20:10:00,65.3,55.7,29.85,SW,227,2.3,0.0,71,0.00,CLR,,0.62,WeatherDisplay:10.37,2013-04-01 00:10:00,
2013-03-31 20:15:00,65.1,55.8,29.85,SSE,151,1.2,1.2,72,0.00,CLR,,0.62,WeatherDisplay:10.37,2013-04-01 00:15:00,
2013-03-31 20:20:00,64.7,56.2,29.85,SSE,151,0.0,0.0,74,0.00,CLR,,0.62,WeatherDisplay:10.37,2013-04-01 00:20:00,
2013-03-31 20:25:00,64.3,56.2,29.85,SSE,151,0.0,0.0,75,0.00,CLR,,0.62,WeatherDisplay:10.37,2013-04-01 00:25:00,
2013-03-31 20:30:00,63.9,56.2,29.85,SSE,151,0.0,0.0,76,0.00,CLR,,0.62,WeatherDisplay:10.37,2013-04-01 00:30:00,
2013-03-31 20:35:00,63.7,56.4,29.85,SSE,151,0.0,0.0,77,0.00,CLR,,0.62,WeatherDisplay:10.37,2013-04-01 00:35:00,
2013-03-31 20:40:00,63.9,60.0,29.85,SSE,151,0.0,0.0,87,0.00,CLR,,0.62,WeatherDisplay:10.37,2013-04-01 00:40:00,
2013-03-31 20:45:00,64.7,61.1,29.85,SSE,151,0.0,0.0,88,0.00,CLR,,0.62,WeatherDisplay:10.37,2013-04-01 00:45:00,
2013-03-31 20:50:00,64.6,57.9,29.85,SSE,151,0.0,0.0,79,0.00,CLR,,0.62,WeatherDisplay:10.37,2013-04-01 00:50:00,
2013-03-31 20:55:00,64.1,57.5,29.85,SSE,151,0.0,0.0,79,0.00,CLR,,0.62,WeatherDisplay:10.37,2013-04-01 00:55:00,
2013-03-31 21:00:00,63.3,57.0,29.85,SSE,151,0.0,0.0,80,0.00,CLR,,0.62,WeatherDisplay:10.37,2013-04-01 01:00:00,
2013-03-31 21:05:00,62.8,57.2,29.85,SSE,151,0.0,0.0,82,0.00,CLR,,0.62,WeatherDisplay:10.37,2013-04-01 01:05:00,
2013-03-31 21:10:00,62.4,57.5,29.85,SSE,151,0.0,0.0,84,0.00,CLR,,0.62,WeatherDisplay:10.37,2013-04-01 01:10:00,
2013-03-31 21:15:00,62.2,57.6,29.85,SSE,151,0.0,0.0,85,0.00,CLR,,0.62,WeatherDisplay:10.37,2013-04-01 01:15:00,
2013-03-31 21:20:00,62.6,60.2,29.85,SSE,151,0.0,0.0,92,0.00,CLR,,0.62,WeatherDisplay:10.37,2013-04-01 01:20:00,
2013-03-31 21:25:00,63.3,60.9,29.85,SSE,151,0.0,0.0,92,0.00,CLR,,0.62,WeatherDisplay:10.37,2013-04-01 01:25:00,
2013-03-31 21:30:00,63.4,58.8,29.85,SSE,151,0.0,0.0,85,0.00,CLR,,0.62,WeatherDisplay:10.37,2013-04-01 01:30:00,
2013-03-31 21:35:00,63.2,58.3,29.85,SSE,151,0.0,0.0,84,0.00,CLR,,0.62,WeatherDisplay:10.37,2013-04-01 01:35:00,
2013-03-31 21:40:00,62.8,57.9,29.85,SSE,151,0.0,0.0,84,0.00,CLR,,0.62,WeatherDisplay:10.37,2013-04-01 01:40:00,
2013-03-31 21:45:00,62.5,57.9,29.85,SSE,151,0.0,0.0,85,0.00,CLR,,0.62,WeatherDisplay:10.37,2013-04-01 01:45:00,
2013-03-31 21:50:00,62.3,58.1,29.86,SSE,151,0.0,0.0,86,0.00,CLR,,0.62,WeatherDisplay:10.37,2013-04-01 01:50:00,
2013-03-31 21:55:00,62.2,58.0,29.86,SSE,151,0.0,0.0,86,0.00,CLR,,0.62,WeatherDisplay:10.37,2013-04-01 01:55:00,
2013-03-31 22:00:00,62.0,58.1,29.86,SSE,151,0.0,0.0,87,0.00,CLR,,0.62,WeatherDisplay:10.37,2013-04-01 02:00:00,
2013-03-31 22:05:00,62.3,59.9,29.86,SSE,151,0.0,0.0,92,0.00,CLR,,0.62,WeatherDisplay:10.37,2013-04-01 02:05:00,
2013-03-31 22:11:00,62.6,59.3,29.86,SSE,151,0.0,0.0,89,0.00,CLR,,0.62,WeatherDisplay:10.37,2013-04-01 02:11:00,
2013-03-31 22:16:00,62.9,59.6,29.86,SSE,151,0.0,0.0,89,0.00,CLR,,0.62,WeatherDisplay:10.37,2013-04-01 02:16:00,
2013-03-31 22:21:00,62.6,59.0,29.86,SSE,151,0.0,0.0,88,0.00,CLR,,0.62,WeatherDisplay:10.37,2013-04-01 02:21:00,
2013-03-31 22:26:00,62.2,58.6,29.86,SSE,151,0.0,0.0,88,0.00,CLR,,0.62,WeatherDisplay:10.37,2013-04-01 02:26:00,
2013-03-31 22:31:00,61.8,58.5,29.86,SSE,151,0.0,0.0,89,0.00,CLR,,0.62,WeatherDisplay:10.37,2013-04-01 02:31:00,
2013-03-31 22:36:00,61.7,58.7,29.86,SSE,151,0.0,0.0,90,0.00,CLR,,0.62,WeatherDisplay:10.37,2013-04-01 02:36:00,
2013-03-31 22:41:00,61.5,58.8,29.86,SSE,151,0.0,0.0,91,0.00,CLR,,0.62,WeatherDisplay:10.37,2013-04-01 02:41:00,
2013-03-31 22:46:00,61.2,58.6,29.86,SSE,151,0.0,0.0,91,0.00,CLR,,0.62,WeatherDisplay:10.37,2013-04-01 02:46:00,
2013-03-31 22:51:00,61.0,59.0,29.86,SSE,151,0.0,0.0,93,0.00,CLR,,0.62,WeatherDisplay:10.37,2013-04-01 02:51:00,
2013-03-31 22:56:00,61.3,60.4,29.86,SSE,151,0.0,0.0,97,0.00,CLR,,0.62,WeatherDisplay:10.37,2013-04-01 02:56:00,
2013-03-31 23:01:00,62.3,61.7,29.86,SSE,151,0.0,0.0,98,0.00,CLR,,0.62,WeatherDisplay:10.37,2013-04-01 03:01:00,
2013-03-31 23:06:00,62.9,60.8,29.86,SSE,151,0.0,0.0,93,0.00,CLR,,0.62,WeatherDisplay:10.37,2013-04-01 03:06:00,
2013-03-31 23:11:00,62.8,59.8,29.86,SSE,151,0.0,0.0,90,0.00,CLR,,0.62,WeatherDisplay:10.37,2013-04-01 03:11:00,
2013-03-31 23:16:00,62.5,59.8,29.86,SSE,151,0.0,0.0,91,0.00,CLR,,0.62,WeatherDisplay:10.37,2013-04-01 03:16:00,
2013-03-31 23:21:00,62.1,59.7,29.85,SSE,151,0.0,0.0,92,0.00,CLR,,0.62,WeatherDisplay:10.37,2013-04-01 03:21:00,
2013-03-31 23:26:00,61.5,59.5,29.86,SSE,151,0.0,0.0,93,0.00,CLR,,0.62,WeatherDisplay:10.37,2013-04-01 03:26:00,
2013-03-31 23:31:00,61.3,59.6,29.85,SSE,151,0.0,0.0,94,0.00,CLR,,0.62,WeatherDisplay:10.37,2013-04-01 03:31:00,
2013-03-31 23:36:00,60.9,59.5,29.86,SSE,151,0.0,0.0,95,0.00,CLR,,0.62,WeatherDisplay:10.37,2013-04-01 03:36:00,
2013-03-31 23:42:00,60.5,59.4,29.85,SSE,151,0.0,0.0,96,0.00,CLR,,0.62,WeatherDisplay:10.37,2013-04-01 03:42:00,
2013-03-31 23:47:00,60.8,60.5,29.85,SSE,151,0.0,0.0,99,0.00,CLR,,0.62,WeatherDisplay:10.37,2013-04-01 03:47:00,
2013-03-31 23:52:00,61.3,60.4,29.86,SSE,151,0.0,0.0,97,0.00,CLR,,0.62,WeatherDisplay:10.37,2013-04-01 03:52:00,
2013-03-31 23:57:00,61.2,60.1,29.85,SSE,151,0.0,0.0,96,0.00,CLR,,0.62,WeatherDisplay:10.37,2013-04-01 03:57:00,